THOR ABLESTAR DEB

Satellite information

Favourite Embed

Satellite Type and Status

DEBRISIN ORBIT

Key statistics

Satellite THOR ABLESTAR DEB at a glance.

Uptime

23544

Days in orbit

Revolutions

≈ 14.0

Per day

Orbit

LEO

Low Earth Orbit

Inclination

67.1

Latest

Satellite identification and parameters

Extended collection of information and parameters for THOR ABLESTAR DEB.

Object identification

Identified? True

Debris? True

Object name: THOR ABLESTAR DEB

International designator: 1961-015KA

Object number (NORAD): 5786

Object ID (CCSDS): 5786

Country: UNITED STATES OF AMERICA (US)

Current information (Y/N): Y

RCS size: SMALL

Orbital parameters

Period: 102.714 minutes

Inclination: 67.1205 deg

SMA: 7265.18 km

Apoapsis: 978.013 km

Periapsis: 796.078 km

RAAN: 65.7354 deg

Eccentricy: 0.012521

Argument of periapsis: 295.5866 deg

Mean anomaly: 63.2323 deg

Mean motion: 14.01952082 rev/day

Mean motion (dot): 0.0000147 rev/day2

B* drag term: 0.00094672 1/REarth

Two-line elements (TLE)

Creation date: Dec. 9, 2025, 8:06 a.m.

Reference frame: TEME

Reference center: EARTH

Epoch: Dec. 8, 2025, 11:05 p.m. UTC

TLE line 0: 0 THOR ABLESTAR DEB

TLE line 1: 1 5786U 61015KA 25342.96225260 .00001470 00000-0 94672-3 0 9990

TLE line 2: 2 5786 67.1205 65.7354 0125210 295.5866 63.2323 14.01952082247892

Live tracking on map

Real-time ground track for satellite THOR ABLESTAR DEB.

In-orbit conjunctions

A list of the most updated potential collisions computed for object THOR ABLESTAR DEB.

Target Orbit TCA Probability of collision Miss distance Type
FENGYUN 1C DEB SSO 2025-12-12 20:36:01 0.0001979409 162.0 (m) DEBRIS
CZ-6A DEB LEO 2024-11-17 20:32:09 0.000870464 225.0 (m) DEBRIS

Associated space launch

THOR ABLESTAR DEB was lifted into orbit during the mission ‘Thor DM-21 Ablestar | Transit 4A & Injun-1 & Solrad 3’, on board a Thor DM-21 Ablestar space rocket.

The launch took place on June 29, 1961, 4:23 a.m. from Space Launch Complex 17B.

For more information about the launch, click the button.

Launch to space Thor DM-21 Ablestar | Transit 4A & Injun-1 & Solrad 3
Thor DM-21 Ablestar | Transit 4A & Injun-1 & Solrad 3

Agency: N/A

Status: Launch Successful

Launch date: June 29, 1961, 4:23 a.m. UTC

Rocket: Thor DM-21 Ablestar

Launch pad: Space Launch Complex 17B

Location: Cape Canaveral SFS, FL, USA

...

Latest news about this satellite

There are no fresh news available about this satellite. Check back as we update our databases every day.


Newsletter sign-up

Weekly statistics, charts and insights to help you stay on top of the space industry.